This is the latest recevied weather packets stored in our database for station/object kj4yre. If no packets are shown the sender has not sent any weather packets the latest 10 day(s).
| Time | Temp. | Humidity | Pressure | Rain* | Wind** | Luminosity | Snow |
|---|---|---|---|---|---|---|---|
| 1777448834 | 7.78° C | 100% | 1016.3 hPa | 0 mm | - | - | - |
| 1777447935 | 7.78° C | 100% | 1016.5 hPa | 0 mm | - | - | - |
| 1777447034 | 7.22° C | 100% | 1016.5 hPa | 0 mm | - | - | - |
| 1777446738 | 7.22° C | 100% | 1016.5 hPa | 0 mm | - | - | - |
| 1777446137 | 7.22° C | 99% | 1016.6 hPa | 0 mm | - | - | - |
| 1777445236 | 7.22° C | 100% | 1016.3 hPa | 0 mm | - | - | - |
| 1777444636 | 7.22° C | 100% | 1016.3 hPa | 0 mm | - | - | - |
| 1777443436 | 7.78° C | 100% | 1016.3 hPa | 0 mm | - | - | - |
| 1777441337 | 7.78° C | 98% | 1017.4 hPa | 0 mm | - | - | - |
| 1777441036 | 7.78° C | 97% | 1017.5 hPa | 0 mm | - | - | - |
| 1777440135 | 8.33° C | 97% | 1017.6 hPa | 0 mm | - | - | - |
| 1777439835 | 8.33° C | 96% | 1017.7 hPa | 0 mm | - | - | - |
| 1777438635 | 8.33° C | 97% | 1018.4 hPa | 0 mm | - | - | - |
| 1777437736 | 8.33° C | 96% | 1018.9 hPa | 0 mm | - | - | - |
| 1777436536 | 8.89° C | 96% | 1019.2 hPa | 0 mm | - | - | - |
| 1777434736 | 8.89° C | 95% | 1019.7 hPa | 0 mm | - | - | - |
| 1777434136 | 8.89° C | 94% | 1019.8 hPa | 0 mm | - | - | - |
| 1777432936 | 9.44° C | 92% | 1019.6 hPa | 0 mm | - | - | - |
| 1777432336 | 10° C | 90% | 1019.8 hPa | 0 mm | - | - | - |
| 1777430837 | 10.56° C | 89% | 1019.1 hPa | 0 mm | - | - | - |
| 1777430536 | 10.56° C | 88% | 1018.9 hPa | 0 mm | - | - | - |
| 1777429335 | 10.56° C | 88% | 1019 hPa | 0 mm | - | - | - |
| 1777429036 | 10.56° C | 87% | 1019.2 hPa | 0 mm | - | - | - |
| 1777428737 | 10.56° C | 88% | 1019.3 hPa | 0 mm | - | - | - |
| 1777426635 | 11.67° C | 81% | 1019.6 hPa | 0 mm | - | - | - |
* Rain latest hour (hover to see other rain measurements)
** Current wind speed in m/s (hover to see current wind gust speed)